sat.trackr.live / text

‹ back to catalog

ONEWEB-0438

NORAD 51634 · 2022-012N

PAYLOAD ACTIVE UNKNOWN

§ Identity

Operator
Country
UK
Launch date
2022-02-10
Launch site
FRGUI
Launch vehicle
Mass (kg)
RCS (m²)

Purposes: comms

External: N2YO · Heavens-Above · Gunter

§ Orbital elements

Epoch: 2026-05-25T02:51:23.476608Z

Period
109.89 min
Inclination
87.8850°
Eccentricity
0.0001963
Mean motion
13.10372576 rev/d
Perigee alt
1,220.2 km
Apogee alt
1,223.2 km
Semi-major
7,599.9 km
B*
-1.8127e-3
RAAN
40.8731°
Arg perigee
82.8551°
Mean anomaly
277.2799°
Rev number
20,632

§ Raw data

ONEWEB-04381 51634U 22012N   26145.11902172 -.00000620  00000+0 -18127-2 0  99972 51634  87.8850  40.8731 0001963  82.8551 277.2799 13.10372576206329

JSON: /api/v1/satellites/51634 · /tle

For live sub-satellite position, see the globe view (requires WebGL).

§ Visibility from observer

Set your observer location to see the next 7 days of passes ≥ 10°. The values pass through the URL so the page stays shareable.

No JS? Fill the form by hand. The geolocation button needs JavaScript.